Theta_e
316 320 320 321 324 325 327 329 328 328 323 316 316 318 319 323 321 320 319 319 321 321 319 319 323 324 323 323 322 326 328 328 330 333 342 344 340 341 342 342 342 341 341 339 338 339 339 340 340 340 340 340 339 340 341 340 339 339 338 337 336 335 333 330 329 331 332 330 329 328 322 320 326 331 331 330 330 329 329 329 329 330 332 332 333 334 334 332 330 328 327 328 325 320 319 320 319
318 322 323 323 325 326 331 330 326 323 317 314 317 319 319 321 321 321 322 322 322 320 321 320 322 324 322 322 319 325 330 330 333 337 341 341 340 341 341 342 342 341 341 339 338 339 339 339 339 340 339 340 339 340 340 339 339 339 337 336 335 335 334 330 329 331 332 329 326 327 325 322 325 330 331 330 329 329 329 329 329 330 331 332 333 333 331 328 327 326 325 325 322 319 318 317 317
317 321 324 325 326 327 330 329 324 318 314 314 316 320 321 321 322 323 323 321 322 320 322 321 322 323 321 323 320 324 331 331 334 336 338 341 340 340 340 341 341 341 341 340 340 339 339 338 339 339 339 339 339 339 339 339 339 339 337 334 334 334 334 331 329 332 332 329 324 322 323 322 326 330 330 330 329 329 329 329 330 330 332 333 333 332 329 327 326 326 325 324 322 322 319 317 320
316 318 324 326 330 329 330 329 324 317 313 314 315 319 322 322 323 323 321 321 322 321 322 320 323 323 322 325 320 325 332 332 335 337 338 340 339 339 340 340 341 341 341 341 341 341 339 339 339 339 339 339 338 338 339 339 338 338 336 332 333 334 334 331 330 332 331 328 324 321 318 317 324 330 330 329 329 328 328 330 331 332 334 334 333 331 330 329 328 327 326 324 324 325 321 319 322
319 322 322 324 332 330 328 326 322 318 314 316 316 319 322 322 323 321 320 321 321 321 321 320 323 323 321 323 323 328 332 332 335 337 338 339 339 339 339 340 341 341 341 341 341 342 340 339 338 338 339 338 338 337 337 339 338 337 334 330 332 334 334 333 331 332 331 328 324 321 318 313 317 327 330 329 329 328 328 330 331 332 333 333 331 330 330 331 330 327 324 322 323 324 322 321 323
323 325 323 323 330 326 325 321 318 317 317 320 318 319 322 321 322 320 320 320 320 321 320 320 321 321 323 324 327 330 330 332 336 338 339 339 339 339 339 340 341 342 341 341 341 341 339 338 338 339 339 339 339 336 336 337 338 336 332 329 331 334 334 333 332 332 331 328 324 321 319 312 312 324 329 329 329 328 329 331 331 332 332 331 330 330 331 331 329 326 322 320 320 322 323 324 324
325 327 327 326 328 325 326 321 318 319 319 321 319 319 321 320 322 320 319 319 319 319 318 320 318 319 324 324 328 331 331 334 338 339 339 338 338 339 340 340 341 342 342 341 342 341 338 337 338 338 339 339 339 337 335 335 337 336 331 330 332 333 334 333 332 332 331 328 324 321 319 313 311 323 329 329 328 327 329 330 331 332 332 331 332 332 332 329 326 324 321 320 320 321 323 324 324
324 327 329 327 329 326 325 322 319 322 320 320 321 319 320 320 321 319 319 319 318 319 318 318 317 320 320 322 329 331 333 336 337 338 338 338 338 339 340 341 341 341 342 341 342 341 337 337 339 338 339 339 338 337 333 333 336 334 331 330 332 333 334 334 333 332 331 328 325 322 319 313 310 322 329 329 328 328 329 330 330 331 331 331 332 331 330 327 324 322 321 321 321 321 323 324 324
323 327 328 325 327 325 321 320 319 321 320 320 320 320 320 320 320 319 319 318 318 318 318 318 319 320 317 322 329 329 332 335 336 337 337 336 337 338 339 340 341 341 342 342 342 341 336 336 339 338 339 339 338 338 331 331 334 331 330 329 331 333 333 334 333 332 331 329 326 323 319 313 310 319 329 329 328 328 328 330 330 330 331 331 331 329 328 326 324 323 320 320 320 322 324 325 325
324 325 326 325 325 322 317 318 321 322 320 320 319 319 320 319 320 319 318 318 317 318 319 320 319 319 316 323 328 328 331 333 335 336 336 336 336 338 339 340 341 341 342 342 342 340 335 336 338 338 339 338 338 338 331 329 332 330 329 329 330 333 333 334 333 332 331 330 327 324 320 313 309 317 327 329 328 328 327 329 330 330 330 330 329 327 325 325 324 323 321 319 321 323 324 324 325
327 323 324 325 321 317 315 318 321 322 320 319 319 318 319 318 319 319 319 318 316 319 320 318 318 318 316 324 328 329 330 332 335 336 336 337 337 337 338 340 340 341 342 342 342 340 336 336 338 338 338 338 338 339 333 327 330 331 330 330 331 332 333 333 333 332 331 330 328 324 321 315 309 313 323 327 328 328 327 328 328 328 328 328 327 325 324 324 324 323 322 321 321 322 323 323 324
329 326 324 323 320 319 317 319 320 322 321 319 319 318 319 318 318 318 319 317 316 318 319 318 318 317 315 324 327 328 330 331 334 336 337 337 337 338 338 340 341 341 342 342 343 341 338 336 337 338 338 338 338 339 336 328 327 332 333 332 333 332 332 333 333 333 332 330 328 325 321 316 311 309 314 323 327 327 327 327 326 326 326 326 324 324 323 324 323 322 322 321 320 322 322 322 323
330 329 325 321 324 324 319 320 321 321 321 320 319 319 319 318 318 318 318 317 316 316 317 318 317 317 318 324 327 328 328 330 335 335 336 337 337 338 339 341 341 341 342 342 343 342 339 337 337 337 338 338 338 338 338 333 329 332 334 334 334 332 332 333 333 333 332 331 329 325 321 317 311 307 308 315 323 326 326 325 325 324 324 324 323 324 323 323 321 320 321 320 320 322 321 321 322
329 330 326 325 327 325 321 320 321 319 319 320 318 318 319 317 317 318 316 316 316 317 318 318 316 317 318 323 325 326 328 332 335 334 334 337 337 339 340 341 341 341 342 342 343 342 341 339 337 337 338 338 338 338 338 336 334 334 334 335 334 333 333 333 333 333 332 331 329 326 322 318 313 310 308 309 315 321 323 324 323 323 322 322 321 320 319 318 317 317 318 317 319 322 321 321 320
330 330 326 326 324 322 321 321 321 319 318 320 318 318 318 317 317 317 316 316 317 317 317 317 317 317 318 324 325 325 330 335 334 333 334 336 336 338 340 341 342 342 342 342 342 342 341 340 339 338 338 338 338 338 338 338 336 335 334 336 336 334 333 333 333 332 332 331 330 327 323 320 317 314 311 308 310 315 320 321 319 317 316 314 313 312 311 310 309 312 314 315 319 320 320 319 318
327 328 325 323 321 320 320 321 322 319 318 319 318 318 317 316 316 316 316 316 317 317 317 317 317 316 318 329 332 330 333 334 333 333 333 334 335 336 338 341 341 341 342 342 342 341 341 341 341 339 338 338 339 338 338 338 338 337 336 336 337 335 334 334 333 332 332 331 330 328 325 322 319 316 313 310 310 312 314 313 310 308 306 305 304 303 304 304 305 309 312 315 318 318 318 316 317
324 327 326 321 319 320 321 322 320 318 318 318 317 317 317 316 316 316 315 315 316 316 316 317 318 316 318 329 334 333 333 333 333 333 332 333 334 335 337 339 340 341 341 341 341 341 341 341 341 340 340 340 339 339 338 338 338 338 337 337 337 335 334 334 333 332 332 332 330 329 327 323 320 317 314 312 311 310 309 306 303 302 302 301 301 300 300 301 303 308 312 316 317 317 315 313 317
325 325 322 320 321 321 322 321 320 321 319 317 317 317 316 316 315 315 315 315 316 315 316 317 317 316 316 327 334 332 331 332 333 333 332 333 334 335 336 337 338 339 340 339 340 340 340 341 341 340 340 340 340 340 339 338 338 338 338 337 337 336 335 334 333 332 332 332 331 329 328 324 321 319 317 315 312 310 308 305 302 301 301 300 300 299 299 301 305 311 315 317 317 315 312 311 316
324 324 321 321 323 321 320 318 318 320 318 316 317 317 317 317 316 315 315 315 315 315 316 317 317 317 315 323 331 330 329 331 332 332 332 333 333 334 335 336 336 337 338 338 338 339 339 339 340 340 340 340 340 340 339 339 338 338 338 337 337 336 335 335 333 333 332 331 331 330 328 325 324 322 320 318 315 312 309 306 304 302 301 300 300 299 299 301 306 312 316 316 315 314 313 312 314
322 324 323 321 322 319 318 317 317 317 318 317 316 317 317 316 316 315 315 315 316 315 316 317 316 318 316 319 327 329 329 330 331 332 333 333 333 333 334 335 335 335 336 337 337 337 337 338 339 339 339 339 339 340 339 339 339 338 338 337 337 337 336 335 334 333 332 331 330 330 328 327 327 324 321 320 318 315 311 308 306 306 304 302 301 301 300 301 305 310 314 314 314 313 313 313 313
320 322 322 320 319 319 317 316 316 316 317 318 317 317 316 316 317 315 316 315 316 316 316 317 315 318 317 316 325 329 329 330 331 331 332 333 333 333 333 334 335 334 334 335 336 336 335 337 338 338 339 338 338 339 339 339 339 338 338 338 337 337 336 335 334 333 333 332 330 330 330 328 328 326 323 321 319 316 313 310 309 309 308 305 303 303 301 302 305 309 311 312 313 312 312 312 312
319 319 319 318 318 318 317 315 316 317 317 318 317 316 316 317 317 316 317 316 316 317 317 318 317 319 317 316 324 328 329 330 330 331 332 332 333 334 334 334 334 334 334 335 335 336 335 335 336 337 338 338 337 338 338 338 338 338 338 338 337 337 336 336 335 334 333 333 331 331 331 330 329 327 324 321 320 318 315 313 311 311 310 307 306 303 301 304 307 310 311 311 311 311 311 311 311
318 318 317 317 317 318 316 315 316 317 317 317 316 316 316 316 317 316 317 316 317 318 318 319 319 320 317 316 322 326 329 330 329 330 331 331 332 333 334 334 334 334 335 335 334 335 335 335 335 335 337 337 337 337 337 337 337 338 338 338 338 337 337 336 336 335 335 334 332 333 332 330 330 328 325 322 322 319 315 312 312 311 310 309 307 305 305 309 312 312 311 310 309 309 310 310 311
316 316 317 316 317 316 315 315 315 315 316 316 316 316 316 316 317 317 317 317 317 318 318 316 316 318 317 317 320 323 326 328 329 329 330 331 332 333 333 334 333 334 335 335 334 335 335 334 334 335 336 337 337 337 337 336 336 337 338 338 338 338 337 336 336 335 335 334 334 333 332 331 330 328 325 324 324 320 316 314 313 311 311 310 310 311 313 314 314 312 311 309 308 308 309 310 311
315 315 317 316 316 315 314 315 314 315 315 315 315 316 316 317 316 317 318 318 317 318 317 316 316 316 318 319 320 321 323 325 328 329 329 331 332 332 333 333 333 334 334 335 335 334 334 333 334 334 334 335 335 336 336 335 335 335 336 337 338 338 337 337 336 336 335 335 335 334 333 331 330 329 326 325 325 322 319 318 316 313 313 314 314 316 316 315 314 313 312 311 310 309 310 311 311
315 316 317 316 316 315 315 315 315 315 315 315 316 316 317 317 315 316 317 317 317 318 318 318 317 316 317 319 320 321 322 323 325 327 328 329 331 332 332 332 333 334 334 334 334 334 333 333 333 334 333 333 334 334 335 334 333 332 333 336 337 337 337 337 337 336 336 335 335 334 333 332 330 328 327 327 326 324 322 321 319 317 317 316 317 317 316 316 315 314 313 312 312 311 311 311 311
317 317 318 317 317 315 316 316 315 316 316 315 315 317 317 316 316 317 318 318 318 319 318 317 318 317 316 318 319 318 319 322 324 326 327 328 330 331 332 332 331 333 334 334 333 333 333 332 332 332 332 333 333 333 333 332 332 332 332 334 336 336 337 336 336 336 336 335 335 334 333 332 331 329 328 328 327 325 324 322 320 319 319 318 318 317 317 317 316 314 314 314 314 312 311 310 310
317 317 317 317 317 316 316 316 316 316 316 315 316 317 317 316 317 317 318 319 318 319 318 317 318 318 317 317 318 317 317 320 323 324 325 327 328 329 331 332 331 331 332 332 332 332 332 332 331 331 332 333 332 332 332 331 331 332 332 334 336 336 336 335 335 335 335 335 335 334 334 332 331 330 329 328 328 327 325 324 321 320 320 320 319 318 317 317 315 314 314 314 314 313 311 309 308
317 317 317 317 317 317 317 317 317 317 316 316 316 317 317 317 318 317 318 319 318 318 318 318 318 318 319 318 318 318 317 317 321 323 324 325 326 328 329 331 332 332 332 332 331 331 332 331 330 330 331 332 332 331 331 331 330 331 332 333 334 335 335 335 335 335 335 335 335 334 334 332 332 331 330 329 329 327 326 325 323 321 321 320 320 318 317 316 314 314 312 312 313 312 310 307 305
317 317 317 318 317 316 318 317 318 317 317 317 316 317 319 318 318 317 319 319 318 318 318 318 319 319 319 319 319 320 318 316 317 320 323 324 325 327 327 329 332 332 332 331 331 331 331 331 330 330 330 331 331 330 330 330 330 329 330 331 332 332 333 334 336 336 334 335 335 335 334 332 331 331 331 330 329 328 327 326 324 323 321 321 320 318 317 315 314 313 311 310 310 310 309 305 303
317 317 317 319 317 316 319 318 318 317 316 317 316 317 318 317 319 319 319 319 318 319 318 318 318 318 320 321 321 322 319 316 316 318 320 322 325 326 326 326 330 332 332 331 330 330 331 331 330 329 329 329 330 330 329 329 329 329 329 330 331 331 330 332 335 336 335 335 334 335 334 333 331 331 332 331 330 329 328 326 325 324 321 320 320 318 317 315 314 312 310 309 307 307 306 303 300
318 317 317 319 317 318 319 317 318 317 316 316 317 317 318 317 319 319 318 318 318 318 318 318 319 319 320 322 322 322 320 317 316 317 318 320 322 325 325 325 326 328 329 328 328 329 330 330 329 329 328 328 329 328 328 328 328 327 327 328 329 331 330 330 332 335 335 334 334 334 334 334 332 331 332 331 330 330 329 327 325 325 322 320 320 319 317 315 314 311 309 309 308 306 303 299 297
318 317 317 319 318 318 319 317 317 318 317 317 317 317 318 318 319 318 318 318 318 318 318 318 319 320 320 321 321 321 321 319 318 317 317 318 319 321 322 323 323 324 325 325 326 327 328 328 328 327 327 327 328 327 326 326 325 325 325 327 327 329 330 329 330 332 334 334 334 334 333 334 333 332 332 331 331 330 330 328 327 326 323 321 320 319 317 316 314 311 307 307 309 307 301 297 295
319 318 317 319 319 317 317 317 317 318 317 317 317 317 317 318 318 318 318 318 319 320 319 319 320 321 322 323 323 322 321 321 320 317 317 318 318 318 319 320 320 322 323 323 324 324 326 326 326 325 325 325 326 325 324 324 323 324 325 326 327 327 328 329 329 330 332 333 334 334 334 334 333 332 332 332 331 330 330 329 327 326 324 321 320 319 317 315 314 311 307 305 306 307 302 297 295
318 319 317 318 318 317 316 317 318 317 317 317 318 318 317 317 317 318 318 319 319 320 320 319 320 320 321 322 323 322 321 321 320 317 317 318 318 318 317 318 319 320 322 322 322 322 323 325 324 323 323 322 323 323 322 322 322 322 324 325 325 326 326 328 328 328 329 331 332 332 333 332 331 331 331 332 331 330 329 329 328 326 324 322 320 318 316 314 312 310 308 304 303 305 302 297 295
316 318 317 317 317 316 316 317 316 316 317 317 317 317 316 317 317 318 318 319 319 319 320 320 319 320 319 320 321 322 323 322 319 317 318 318 317 318 317 318 319 319 321 321 321 321 322 323 322 321 321 320 320 321 320 320 320 320 320 321 321 323 325 326 326 326 326 327 329 330 331 331 330 330 331 331 331 330 330 329 328 326 325 322 320 318 316 315 312 309 307 305 304 301 298 296 295
315 317 318 317 316 316 317 318 316 316 316 316 317 317 316 316 317 317 317 319 320 319 319 319 320 321 321 321 321 320 321 320 319 319 319 318 317 318 317 317 317 319 320 320 320 321 321 321 321 320 319 319 319 319 319 319 319 319 318 318 319 321 324 325 325 325 323 322 323 326 328 329 329 330 331 331 330 330 330 329 329 327 325 323 321 319 318 315 313 310 307 305 305 301 296 294 296
315 317 317 317 318 317 317 317 316 315 317 317 316 316 316 317 317 318 319 319 318 318 318 318 319 320 321 322 321 321 320 319 323 324 320 318 318 317 317 317 317 318 319 319 319 320 320 319 320 319 318 318 318 318 318 318 318 318 318 318 319 320 322 323 323 323 322 320 322 325 327 327 328 329 330 330 330 330 329 329 328 327 326 324 321 319 317 315 312 310 307 304 303 301 298 295 296
317 318 318 319 320 318 317 317 316 315 317 317 317 317 316 316 317 317 317 318 317 317 318 318 319 320 322 322 321 321 322 324 331 330 321 317 318 317 317 317 316 317 317 318 318 319 320 319 319 319 318 318 318 317 318 318 318 318 317 317 317 318 318 319 320 320 320 321 322 325 326 327 328 328 329 329 329 330 330 329 327 326 325 324 322 317 315 313 311 310 309 307 303 299 297 296 298
319 319 318 319 323 320 316 316 316 316 316 316 318 318 317 316 318 317 316 316 315 316 318 319 322 323 323 323 322 322 324 326 332 331 324 318 317 317 316 316 316 316 316 317 317 318 319 319 319 318 318 317 317 317 318 318 318 317 316 315 316 316 316 317 317 318 319 319 321 322 324 325 326 328 328 328 328 329 329 328 327 325 324 324 322 318 314 312 311 310 309 309 306 299 295 295 298
321 323 320 319 321 320 319 318 318 317 317 319 320 322 323 321 319 320 319 319 317 317 320 321 325 328 327 327 326 326 327 328 329 331 327 319 316 316 315 315 315 315 316 316 316 317 317 318 319 318 318 317 317 317 318 317 317 315 314 315 316 316 316 316 316 316 317 318 320 320 322 324 325 326 327 327 328 328 328 327 326 325 323 323 321 318 316 314 312 309 307 307 307 304 299 295 297
318 324 324 321 320 322 322 322 321 318 317 322 322 322 327 324 317 319 318 320 320 320 323 324 325 328 329 328 327 327 328 330 329 329 328 320 315 316 315 314 314 314 314 315 315 316 317 318 318 318 318 317 317 317 317 316 316 315 314 315 316 316 315 315 315 315 316 317 319 320 321 323 324 325 325 325 326 326 327 326 325 325 323 322 320 318 316 314 313 310 309 308 308 310 306 299 297
315 322 327 324 323 325 322 320 321 318 318 323 321 320 323 318 312 315 316 316 318 318 322 324 323 325 326 325 326 327 328 329 330 328 327 322 316 315 315 314 314 314 313 313 314 315 316 317 317 317 317 317 317 317 316 315 315 314 314 314 315 315 315 314 314 315 316 317 318 319 321 321 322 322 323 323 324 324 325 325 324 324 323 322 319 317 316 315 314 313 312 312 310 311 310 303 299
319 325 327 324 324 326 322 320 321 321 322 324 322 320 322 319 314 315 318 317 317 317 318 320 321 324 325 325 328 329 329 331 335 332 328 324 317 314 315 314 314 313 313 313 313 314 315 316 316 316 316 317 316 316 315 315 314 314 313 313 314 314 314 314 314 314 316 317 318 320 320 320 319 320 321 321 321 322 322 322 323 322 322 321 319 317 316 316 315 314 311 310 309 307 308 308 303
324 326 325 325 325 325 323 322 322 323 325 326 325 322 323 324 322 320 321 318 317 318 318 319 320 323 325 327 329 331 330 332 334 333 329 323 317 315 316 315 314 313 313 313 313 314 315 315 316 316 316 316 316 315 315 314 314 313 313 313 313 313 313 313 313 314 315 317 318 319 319 319 319 319 320 319 320 320 320 320 321 321 320 320 320 318 317 316 315 315 312 308 306 305 305 307 305
325 325 324 326 326 325 323 323 323 323 323 324 328 326 319 320 322 319 320 320 320 321 319 319 323 327 331 332 331 329 331 330 328 328 326 319 316 316 315 315 314 313 313 313 313 314 314 315 316 315 315 315 315 314 314 314 313 313 312 312 312 312 312 313 314 314 315 316 316 317 318 318 319 320 319 319 319 319 319 319 320 321 320 319 319 318 315 314 313 314 313 310 306 305 304 304 305
324 325 325 324 324 324 323 323 322 322 322 323 328 327 317 317 321 317 318 321 323 321 318 320 327 331 331 332 331 328 329 330 327 326 321 314 313 314 314 314 314 313 313 313 313 313 314 314 315 315 315 315 314 314 314 313 313 312 312 311 311 311 312 313 314 314 314 314 315 315 316 317 318 319 319 319 319 319 318 319 320 320 319 318 317 316 314 313 311 310 309 308 306 306 306 305 305
324 324 322 321 322 323 322 323 324 322 321 322 326 327 321 318 319 317 318 320 320 320 319 321 327 332 332 331 331 327 327 330 327 325 322 316 314 313 312 313 313 312 313 313 313 313 313 314 314 314 315 314 314 313 313 312 312 312 311 311 311 311 313 314 314 314 313 314 314 314 314 315 316 317 319 319 319 318 318 319 319 318 317 316 315 314 315 315 313 310 307 305 305 305 306 305 303
325 323 320 320 320 323 324 326 329 325 320 321 323 324 322 319 316 316 319 318 318 319 321 323 324 327 331 331 330 329 329 329 327 326 324 320 316 311 310 311 312 312 312 312 313 313 313 314 314 314 314 314 313 312 312 312 311 311 311 311 311 311 312 314 314 313 313 313 314 314 313 313 314 315 317 318 318 318 318 319 319 318 316 316 315 314 314 315 314 311 309 307 306 305 305 304 302
323 321 323 322 318 320 323 324 327 325 322 322 322 321 322 320 316 318 319 317 320 321 322 325 323 322 326 328 330 332 332 330 330 328 326 324 318 310 309 310 311 311 312 312 313 313 313 313 313 313 313 313 313 312 311 311 311 311 310 310 310 310 311 313 314 313 313 313 313 314 314 314 314 316 317 318 319 318 319 319 318 318 317 316 315 314 313 313 312 312 311 309 308 306 305 304 303
320 319 321 322 319 317 318 319 323 326 324 320 319 321 324 322 319 319 318 319 322 322 322 325 325 324 326 327 329 331 332 332 332 330 331 328 318 312 311 311 310 311 311 311 312 312 312 312 312 313 313 313 313 312 311 310 310 310 310 310 310 310 310 311 313 313 313 313 313 313 314 314 314 316 317 318 319 319 319 319 318 317 317 316 316 315 313 311 310 310 310 309 308 306 305 304 304
319 319 319 322 321 315 316 319 321 322 322 322 323 325 325 322 319 317 317 318 318 319 323 326 327 327 328 330 332 331 329 330 331 330 332 327 317 314 314 312 311 311 311 311 311 312 312 312 312 312 312 313 312 311 310 309 309 309 309 309 310 310 310 311 312 312 312 312 313 313 313 313 313 315 317 318 319 319 318 318 317 318 317 316 316 314 312 310 310 309 308 307 306 305 304 304 305
319 322 321 323 322 316 317 321 320 318 318 320 323 323 319 316 315 316 316 316 315 315 319 322 322 324 328 333 335 331 329 331 332 330 332 327 317 315 316 313 312 311 310 311 311 311 312 311 312 312 312 312 312 311 310 309 309 308 308 308 309 310 310 310 311 311 312 312 312 313 312 312 313 313 315 316 317 317 317 316 316 316 316 315 314 312 310 310 309 309 308 307 306 305 305 305 304
323 325 322 321 323 320 318 319 321 320 318 318 317 315 314 312 313 316 317 316 315 316 317 318 319 322 326 332 334 333 333 335 335 331 331 327 317 314 315 313 312 311 311 311 310 311 311 311 311 311 311 312 311 311 310 309 309 308 308 308 308 309 309 310 310 310 311 311 311 312 312 312 312 312 313 314 314 315 314 314 313 313 313 313 312 310 309 308 307 307 307 306 306 305 304 304 303
322 324 321 320 323 323 320 317 317 319 318 318 317 315 315 313 312 314 315 316 317 318 318 318 319 323 325 330 334 335 334 335 335 332 332 329 318 313 313 312 312 312 311 311 310 311 311 311 311 311 311 311 311 311 310 309 309 308 307 307 307 308 308 309 310 310 310 310 310 310 310 310 311 312 312 312 312 312 312 311 310 309 310 310 310 308 307 306 305 304 304 304 304 304 303 302 302
320 321 320 322 322 322 322 319 316 317 317 316 317 317 316 315 313 314 315 316 316 316 318 318 320 323 323 327 338 343 339 337 338 335 334 330 318 312 312 312 311 311 311 311 311 311 311 311 311 310 310 310 310 311 311 310 309 308 307 306 306 306 307 308 309 309 309 309 309 309 309 310 310 311 311 311 311 311 310 309 308 307 307 308 308 307 305 304 303 303 303 303 302 302 302 302 301
320 320 321 322 321 321 324 322 318 318 317 315 315 316 315 314 313 316 316 317 317 319 321 322 323 323 322 328 341 347 340 336 339 337 334 329 317 311 312 311 310 311 311 311 311 311 311 310 310 311 310 310 311 310 311 310 309 308 307 306 306 306 306 307 307 308 308 308 308 308 309 309 309 310 311 311 310 309 308 307 307 306 306 307 307 305 303 302 301 301 301 301 301 300 300 300 300
317 317 318 320 319 320 322 321 319 319 318 318 318 318 317 314 314 318 316 315 319 324 323 322 322 320 321 328 337 340 334 331 333 332 331 327 316 310 311 310 310 310 310 310 311 310 311 310 310 310 310 310 310 310 310 310 309 308 307 306 306 306 306 306 306 306 307 307 308 308 308 308 308 309 310 310 309 308 307 306 306 305 305 305 304 303 301 300 299 298 298 298 298 298 298 298 298
Wind_Speed
4 5 5 4 4 4 4 3 1 2 3 1 4 3 2 3 3 4 5 3 2 4 4 4 5 5 3 2 3 7 7 6 3 1 2 7 15 16 14 19 18 17 16 13 14 13 12 12 11 11 11 10 10 11 11 12 13 13 13 13 12 13 12 12 12 13 13 14 14 15 16 17 18 18 18 17 17 17 17 17 17 17 17 16 16 16 16 16 17 18 19 19 20 20 21 22 23
2 4 5 5 4 2 2 3 1 3 3 3 4 4 3 3 2 5 7 6 4 3 4 5 5 4 2 3 2 4 8 8 6 4 7 14 16 13 15 18 17 16 14 13 14 13 12 12 12 11 11 10 10 11 11 12 12 13 13 12 12 12 12 12 12 12 13 13 14 15 16 17 18 18 18 17 17 17 17 17 17 17 15 14 15 18 17 16 17 18 19 19 20 21 22 23 24
2 1 3 4 4 2 2 1 2 4 2 5 3 3 4 4 4 8 9 8 6 5 5 4 3 3 3 3 3 3 5 7 9 7 8 16 13 12 16 15 17 16 13 15 14 12 12 13 13 12 11 10 9 10 11 12 12 12 12 12 12 11 11 12 12 12 12 13 14 15 16 16 18 18 17 17 17 17 17 17 17 17 14 13 16 18 18 18 18 18 18 19 20 20 22 25 27
2 0 1 3 2 2 2 2 3 3 3 4 3 2 4 5 8 9 8 7 6 4 4 2 2 2 3 3 4 3 5 5 10 9 7 13 14 15 17 15 16 16 15 16 14 12 12 13 13 13 13 11 10 10 11 11 11 11 11 12 11 11 11 11 11 11 12 12 14 14 15 16 17 17 17 17 17 17 17 17 18 17 16 16 17 18 19 19 18 18 17 19 19 20 22 25 27
2 0 2 2 1 1 1 2 2 3 4 2 4 3 4 8 9 8 7 6 5 4 3 1 1 1 2 2 3 2 4 4 10 12 10 13 18 19 17 16 16 15 16 15 15 13 12 14 13 13 13 12 11 10 10 10 11 10 11 11 11 11 11 11 11 10 11 12 13 14 14 15 16 17 17 17 17 17 17 17 17 16 16 17 17 18 19 17 16 16 16 18 19 21 23 26 27
3 1 4 2 1 1 1 3 1 5 4 4 5 3 6 9 9 8 7 6 5 5 3 1 1 1 2 3 4 4 2 4 9 10 12 16 19 19 17 18 15 15 15 15 14 12 13 14 13 13 13 12 11 11 10 10 10 10 10 11 10 11 10 11 10 10 11 12 13 13 14 14 15 17 17 17 17 17 17 17 17 16 15 16 16 17 18 16 15 15 16 19 21 23 26 27 28
4 1 3 2 2 0 2 3 3 5 3 5 5 4 7 8 8 8 7 5 3 4 1 2 2 2 1 2 4 5 6 7 9 9 15 18 18 18 17 17 15 15 14 15 14 12 14 15 14 14 13 13 11 10 10 10 10 10 11 11 10 10 10 10 10 9 10 11 12 13 13 14 15 17 17 17 17 17 17 16 16 16 16 15 16 18 18 16 15 15 16 19 21 23 27 27 27
1 1 1 1 2 1 3 1 5 4 2 5 5 5 8 8 7 7 6 5 2 3 2 0 1 2 1 2 2 4 8 11 12 13 18 20 18 17 17 15 15 15 14 15 13 12 15 16 14 14 14 13 11 10 9 10 11 11 11 11 11 10 10 10 9 9 9 10 11 12 12 13 14 16 17 16 17 17 16 15 14 15 16 16 16 17 17 15 14 15 17 20 22 25 27 27 27
2 2 1 1 2 2 3 2 5 4 3 4 4 5 7 7 6 7 5 5 4 4 4 3 2 1 1 3 4 5 8 11 15 15 15 18 18 16 15 15 15 16 14 15 13 12 16 16 14 14 14 13 12 10 8 10 12 12 12 12 11 10 9 9 9 8 9 9 10 11 12 13 14 16 17 16 17 16 15 15 14 13 15 15 16 16 15 15 14 15 17 20 24 27 28 27 27
3 2 1 1 2 4 3 3 5 4 5 5 5 5 6 5 5 7 6 6 5 4 5 4 3 0 1 4 3 4 10 12 15 15 13 14 16 15 15 14 14 16 15 14 12 13 16 16 14 14 14 13 12 10 8 10 13 13 12 12 10 9 9 9 8 8 8 9 9 10 11 12 13 15 16 16 16 15 15 15 14 13 14 15 15 15 15 15 16 16 17 19 23 26 27 26 24
1 2 1 1 3 4 1 4 5 4 5 4 5 5 4 4 4 4 5 6 5 4 5 3 2 2 2 5 2 4 14 14 15 15 14 14 15 15 14 13 13 14 15 13 11 12 16 16 14 14 14 14 12 11 10 10 13 13 11 11 10 10 9 9 9 8 8 8 9 9 10 11 12 14 15 16 16 15 15 15 14 14 14 14 15 15 15 16 16 17 17 18 21 24 24 22 22
1 3 2 1 5 2 3 3 5 5 5 4 5 4 3 4 3 4 4 5 5 5 6 4 1 1 2 3 2 8 14 14 15 16 15 15 14 13 13 13 12 13 14 14 12 12 16 16 15 15 14 14 13 12 11 12 13 12 11 11 10 10 9 9 9 8 8 8 9 9 9 10 11 12 14 16 16 16 15 15 14 14 14 15 16 16 16 17 17 17 17 18 20 21 20 20 20
1 3 2 3 4 2 3 3 4 4 4 5 5 5 4 4 4 4 4 4 5 5 4 4 2 2 0 3 4 8 11 13 16 16 16 15 13 13 13 12 12 12 13 14 13 12 14 16 16 15 14 13 13 12 12 13 14 12 12 11 11 11 10 10 9 8 8 8 8 9 9 10 11 12 13 15 16 16 15 15 14 14 15 16 16 16 16 16 16 17 17 18 20 20 19 20 21
1 2 1 2 2 2 2 2 1 1 2 4 6 6 4 4 4 2 3 4 4 2 1 3 3 2 1 3 4 4 8 15 17 17 16 14 12 13 12 12 12 11 12 13 13 12 12 14 16 15 14 13 13 13 13 14 14 13 12 11 11 11 10 10 9 9 9 9 8 9 9 10 11 12 12 13 15 15 15 15 14 14 16 15 15 15 15 16 16 17 18 19 19 19 19 20 21
2 2 1 2 2 1 1 1 1 2 2 4 5 6 5 1 1 2 2 2 2 0 2 4 3 2 2 2 2 5 12 18 17 17 16 14 13 13 12 10 12 10 11 12 12 12 11 13 14 15 15 14 14 13 14 14 14 14 13 12 12 11 11 11 10 10 10 9 8 8 9 9 10 10 11 12 13 14 14 13 13 14 14 13 13 14 14 15 15 17 19 19 19 19 19 20 23
1 2 1 2 2 1 1 2 1 1 2 5 5 6 6 2 2 2 1 2 2 0 1 2 2 1 3 4 5 12 18 18 16 17 16 15 12 12 11 8 10 10 10 12 13 13 12 13 13 14 15 14 14 13 14 14 14 14 14 13 12 12 12 11 11 10 10 9 9 9 8 8 9 10 11 11 12 13 12 12 12 13 13 13 14 14 14 15 15 17 19 18 18 19 19 21 24
0 1 0 1 3 2 3 3 2 3 4 5 6 6 6 3 0 1 1 0 3 2 1 3 4 3 5 7 11 17 19 17 17 17 15 15 12 11 12 9 10 10 10 11 12 14 13 14 14 14 14 14 14 14 14 15 15 15 15 15 14 13 13 13 12 10 10 9 9 9 9 9 10 10 10 11 11 11 11 11 12 12 13 14 15 15 15 15 15 17 18 18 18 18 19 21 23
0 1 1 3 4 2 2 3 2 4 6 5 6 7 5 6 4 2 2 1 2 4 4 4 6 7 10 13 16 16 17 17 17 18 16 15 14 12 13 13 13 13 13 10 11 14 13 15 15 14 15 14 14 14 15 16 16 16 16 16 15 14 14 14 13 12 11 11 11 10 10 10 10 11 10 11 11 11 11 11 12 13 13 14 15 15 15 16 17 18 18 17 17 17 18 19 20
1 2 3 3 1 2 4 6 6 4 4 6 6 6 4 6 7 3 3 4 5 5 4 6 6 7 10 12 16 16 16 17 17 17 17 16 16 15 14 15 15 15 16 13 13 15 14 15 16 14 13 14 15 14 14 15 16 17 17 16 16 15 15 15 14 13 12 12 12 11 10 10 9 10 11 11 11 12 12 12 13 13 14 15 16 16 16 17 18 18 18 18 18 17 17 17 17
1 1 2 2 2 4 7 8 7 5 3 5 7 3 2 4 6 4 3 5 7 7 6 7 7 7 9 10 14 17 16 16 17 16 16 16 16 16 17 17 19 18 19 18 16 17 18 16 16 16 14 15 15 14 14 14 14 16 17 16 17 17 16 16 15 14 14 13 14 12 11 12 11 10 12 11 11 12 12 13 14 14 15 16 16 17 18 18 19 19 19 17 16 15 15 15 15
0 0 1 2 4 4 6 7 6 5 5 3 6 2 1 3 4 4 4 3 5 6 6 7 9 11 12 10 13 17 16 16 16 16 16 17 17 17 18 18 20 19 17 18 19 19 20 20 19 19 16 16 17 15 14 14 13 14 17 17 17 18 17 18 17 16 15 14 15 15 14 16 14 11 12 12 12 13 13 14 15 15 16 16 17 18 18 19 20 19 16 15 14 13 13 14 15
1 2 3 3 4 3 4 5 5 4 3 2 6 3 0 3 3 3 4 3 3 2 1 2 3 9 14 12 13 15 14 15 16 17 17 18 18 18 19 18 18 19 18 19 21 21 21 22 23 22 18 16 17 17 15 14 14 15 17 18 18 19 19 19 19 18 17 16 17 17 17 18 16 13 13 13 13 13 14 15 16 16 17 17 18 18 20 20 18 15 14 14 14 14 14 15 16
1 1 4 5 4 3 3 3 3 5 2 3 3 0 1 2 2 4 6 6 3 5 6 7 6 10 17 15 13 12 11 13 16 19 19 19 20 20 20 20 19 20 21 22 22 21 21 22 23 24 22 19 18 17 17 16 16 16 17 18 19 19 20 21 21 20 19 18 18 18 19 19 18 16 15 15 14 14 15 16 17 18 18 19 19 20 19 16 14 13 14 15 15 16 16 16 17
2 1 4 3 4 4 3 2 1 3 3 3 2 2 1 3 3 0 4 7 4 5 8 8 8 12 16 13 10 11 11 13 16 19 21 20 21 21 20 20 20 20 21 22 22 22 24 23 22 23 24 22 20 18 18 19 19 18 17 18 18 18 19 21 22 22 20 20 20 19 20 20 18 17 18 17 15 16 16 15 17 19 20 20 20 18 16 13 14 15 15 15 16 16 17 17 18
3 1 4 2 3 5 4 3 2 1 1 2 2 2 3 2 1 2 4 7 6 5 8 8 8 9 10 10 10 9 10 13 15 17 19 20 19 20 19 19 19 21 22 22 22 23 25 25 23 23 24 24 22 20 19 18 19 20 19 19 19 19 20 20 22 22 22 22 21 20 20 21 19 18 20 19 17 17 17 15 17 19 19 18 17 16 14 15 16 16 17 17 17 17 18 18 19
2 3 5 4 4 4 3 3 3 1 1 2 1 5 3 3 3 4 8 8 8 6 8 7 8 7 7 8 9 9 9 11 15 17 19 20 18 19 21 21 19 21 23 23 23 23 23 25 25 26 25 24 23 22 22 19 17 19 21 21 20 20 21 21 22 22 22 21 21 21 21 22 21 19 21 22 20 19 19 18 18 19 18 17 17 17 16 17 18 19 20 20 19 18 18 18 19
1 4 6 5 5 4 1 2 4 1 1 1 3 4 1 3 1 4 4 3 6 8 8 7 8 7 7 7 8 10 10 13 17 18 17 17 18 20 21 23 23 21 22 24 25 23 22 25 28 28 27 25 24 23 23 20 19 18 19 22 23 22 21 20 22 23 23 22 21 22 23 23 23 21 22 24 22 21 22 21 20 19 19 19 19 19 18 18 20 21 21 20 20 20 19 17 17
1 5 6 5 5 4 2 3 4 2 1 0 3 5 2 3 2 7 4 2 5 7 6 7 7 7 7 8 8 9 10 15 19 18 17 19 22 23 23 25 27 24 23 25 26 25 24 25 27 27 27 27 26 25 23 21 21 20 20 21 23 24 22 20 21 23 25 24 22 22 24 25 24 23 23 25 25 24 25 24 21 21 21 21 21 21 20 21 22 20 20 19 19 20 19 17 16
3 3 3 5 4 3 5 4 4 3 0 2 1 4 5 5 9 12 7 6 5 6 6 6 7 7 7 8 7 7 10 14 17 19 20 23 24 25 25 26 28 27 26 25 25 26 25 25 26 27 27 27 27 26 24 23 23 21 20 21 21 23 23 22 22 23 25 27 26 22 23 26 25 24 25 25 26 25 27 27 24 24 23 23 24 23 22 23 23 21 20 20 20 21 20 19 18
2 3 1 4 3 3 7 6 4 3 1 2 0 2 6 6 13 11 7 8 6 5 6 6 6 6 7 7 6 7 9 12 15 19 23 23 24 25 26 26 27 28 27 25 25 26 26 25 25 26 27 27 28 27 26 26 26 23 20 20 21 23 24 23 24 24 25 27 28 24 22 25 26 25 25 26 26 26 28 29 27 27 26 26 26 26 25 25 25 24 23 22 22 22 21 20 19
2 2 1 2 2 2 4 5 6 4 0 3 2 1 7 4 4 3 6 7 7 6 7 6 6 6 7 7 7 7 8 12 17 20 23 23 24 25 26 26 26 28 27 27 28 27 27 27 27 26 27 27 28 29 28 27 28 27 23 20 20 23 24 25 25 25 25 26 28 27 24 24 26 27 26 26 28 28 28 29 29 28 29 29 28 27 27 27 26 25 25 24 24 23 22 21 20
1 2 2 3 2 1 2 2 4 3 1 3 3 2 7 5 1 3 4 4 4 5 6 6 7 6 6 6 7 7 7 14 19 21 22 24 24 24 26 27 27 29 29 29 29 28 28 28 29 28 28 28 28 28 28 27 26 26 26 24 21 21 23 25 26 26 25 24 26 28 27 26 27 28 27 26 28 30 29 30 30 30 30 31 30 29 29 28 28 26 25 26 26 25 23 22 22
1 2 2 3 3 3 2 1 0 3 1 3 4 3 5 3 3 4 4 5 5 5 5 7 7 6 6 6 6 7 7 10 14 18 22 25 26 26 26 27 28 29 30 30 29 29 29 29 30 30 30 31 30 29 29 28 26 24 25 26 24 21 23 25 26 28 27 25 25 28 29 28 29 29 28 28 29 32 32 30 30 29 31 32 31 31 30 29 30 28 26 26 27 26 25 25 24
3 3 3 2 3 3 2 0 0 2 1 3 5 5 6 7 4 4 4 6 7 6 7 7 7 6 6 6 6 7 7 8 9 16 23 25 27 28 27 28 29 29 30 30 29 30 30 30 30 31 31 31 31 31 30 29 28 26 24 25 25 22 23 25 25 28 29 27 26 28 29 29 29 28 29 29 29 31 31 30 29 29 31 32 32 32 31 30 30 30 28 26 26 27 28 27 26
2 4 4 3 2 3 2 1 2 3 1 3 5 6 9 12 10 7 7 8 8 8 8 8 7 8 7 7 7 7 8 9 10 16 24 27 27 28 28 28 28 29 29 29 28 29 30 30 30 30 30 30 30 29 29 28 27 28 26 25 25 22 22 24 25 28 29 27 26 29 30 30 29 28 29 31 30 30 29 29 28 29 32 33 33 33 31 31 30 30 29 28 27 27 28 29 28
2 1 2 2 2 2 1 3 0 0 1 4 7 8 9 11 11 9 9 8 9 9 8 8 8 8 7 7 7 8 9 9 12 19 25 28 29 29 29 29 28 28 29 28 27 28 29 30 30 30 30 29 29 28 27 27 26 27 27 26 27 26 24 23 25 27 30 30 28 28 30 30 30 29 29 31 32 32 31 30 29 30 33 35 35 34 33 33 33 32 31 31 30 27 26 28 29
3 3 2 2 2 1 3 4 1 2 1 5 7 8 10 10 11 9 8 8 8 8 8 8 8 8 8 8 9 10 10 9 12 18 23 28 30 29 29 28 27 27 26 27 28 29 30 30 30 30 31 29 29 29 28 28 28 28 28 29 30 30 28 25 25 26 28 31 30 30 31 30 30 30 30 32 33 34 32 31 31 32 33 35 36 36 36 35 35 34 32 32 32 30 28 28 29
3 2 3 3 1 0 3 3 1 1 2 4 6 8 10 9 9 9 7 8 9 9 9 10 10 9 8 9 11 12 9 7 8 12 18 24 26 26 27 26 27 27 27 28 29 30 30 30 31 31 30 31 30 30 30 30 31 30 30 31 31 31 30 30 28 27 26 26 28 31 31 30 30 30 31 33 35 34 32 31 32 34 34 35 35 36 36 36 36 35 34 32 31 31 31 31 31
3 1 1 2 2 1 3 3 0 1 1 4 6 7 10 10 9 11 10 11 11 10 11 11 10 9 8 9 12 10 8 7 8 8 12 19 22 23 24 24 25 26 27 27 28 28 29 29 31 30 30 31 31 31 31 32 31 30 29 27 28 28 28 30 30 28 27 25 27 28 28 28 29 30 32 34 36 34 32 32 33 34 35 35 35 36 36 37 38 37 37 35 31 29 28 32 33
2 2 1 1 2 1 1 1 1 3 4 3 6 6 10 10 9 12 13 14 13 10 10 10 9 9 9 11 11 9 8 9 8 8 9 14 18 20 22 23 24 24 23 25 27 27 29 29 30 30 30 30 31 31 31 31 29 28 26 22 21 22 22 25 26 26 27 28 28 28 27 27 28 29 31 33 32 30 31 33 33 33 35 35 36 38 38 38 39 39 39 38 37 31 27 31 31
4 5 4 4 2 3 2 1 2 4 3 2 5 5 8 7 5 8 7 8 10 8 8 9 8 9 9 10 10 8 8 8 8 9 9 11 15 19 22 22 23 24 24 26 28 28 28 29 29 29 29 28 29 30 29 29 27 26 24 20 18 19 19 21 23 25 28 30 30 29 28 28 27 28 29 30 29 29 32 33 32 33 34 35 37 39 40 41 41 40 39 38 39 37 31 32 29
4 5 4 4 2 4 5 3 3 3 2 1 2 3 6 6 5 7 6 3 6 6 7 9 9 8 8 9 9 8 7 7 7 8 7 10 14 18 20 21 22 24 26 26 27 28 27 27 28 27 27 27 27 29 28 27 26 26 27 25 23 22 22 23 26 28 29 30 30 30 30 29 28 28 28 28 29 30 31 32 32 32 33 35 37 38 40 41 41 40 40 38 38 38 34 33 31
3 3 3 2 2 6 4 3 2 1 3 3 2 0 5 7 9 10 8 7 9 7 8 10 8 8 9 9 8 7 7 7 7 7 6 9 13 15 17 21 24 24 24 24 24 25 26 25 26 27 26 26 26 28 28 27 26 26 28 29 27 26 25 24 26 27 29 30 30 29 29 28 28 29 28 28 30 31 31 31 32 31 32 35 37 38 39 41 42 42 42 42 40 39 36 35 35
2 4 4 3 5 5 3 2 0 2 3 2 3 3 3 6 10 10 8 10 11 9 10 11 9 9 9 8 7 7 7 6 6 7 7 7 12 15 17 20 22 22 21 21 22 24 25 24 24 25 25 25 26 27 28 29 28 27 28 28 27 26 25 23 22 24 27 29 29 28 27 26 26 27 28 28 30 31 31 32 31 31 32 34 36 38 39 40 42 43 43 42 38 38 37 37 37
2 4 2 3 6 4 3 3 1 1 4 3 3 3 3 6 7 8 7 9 9 8 10 11 10 9 7 6 6 6 5 5 6 7 6 6 10 14 16 18 18 19 19 20 21 23 23 23 22 23 25 25 26 27 28 29 29 28 28 28 27 26 25 22 20 22 25 26 27 28 27 25 25 26 28 28 28 29 31 31 30 31 32 34 36 38 39 40 42 43 43 42 37 37 37 35 35
3 4 3 5 5 4 3 2 1 2 2 4 5 5 3 5 5 5 6 7 7 8 9 7 4 3 5 6 6 5 5 5 5 7 6 5 7 9 11 14 16 16 17 18 20 21 22 23 22 23 25 26 25 26 27 28 29 28 28 27 27 25 24 22 20 21 25 25 26 26 26 26 26 27 28 28 28 28 29 30 29 30 32 34 36 38 40 40 41 43 44 44 41 39 36 33 33
4 4 4 4 3 4 2 1 3 2 3 4 6 10 5 4 4 4 4 4 4 5 5 1 4 6 6 5 4 5 4 4 4 5 7 8 7 9 10 13 15 15 16 17 19 20 22 23 23 24 24 24 24 24 26 27 28 28 29 28 27 25 24 23 21 21 24 25 25 26 26 27 28 28 27 27 28 28 29 30 30 31 32 34 37 39 40 40 40 40 40 41 41 39 37 34 31
3 2 4 3 2 4 3 2 3 1 4 2 2 4 5 6 5 1 2 2 2 1 1 4 6 6 4 3 4 5 5 6 6 5 6 7 7 8 10 13 15 16 17 18 19 20 21 23 23 23 23 22 22 22 24 26 27 28 29 28 27 26 24 24 23 22 23 24 24 24 25 26 27 28 28 29 30 30 30 31 31 32 32 34 36 37 38 39 38 38 38 38 37 35 35 33 30
1 2 5 4 1 2 1 1 1 3 5 2 4 3 2 8 6 3 6 6 2 1 1 4 4 5 6 5 4 5 6 6 6 6 6 6 6 8 11 13 15 17 18 19 19 20 21 21 22 22 23 23 22 22 24 26 27 28 29 28 27 26 25 25 24 23 23 24 24 24 24 25 26 27 29 31 32 32 32 32 32 33 33 33 34 35 36 37 38 38 38 38 36 34 33 32 30
4 5 5 5 3 2 3 3 2 3 3 3 4 2 3 6 5 5 8 7 5 3 1 1 1 1 2 3 4 6 6 7 6 6 6 6 6 9 13 15 16 18 18 19 19 20 20 21 22 23 23 24 24 24 24 25 27 28 29 29 28 28 27 26 26 26 25 25 25 26 26 26 27 28 29 31 32 32 32 32 31 32 32 33 33 34 34 35 36 37 38 38 38 36 35 33 31
7 5 4 5 5 4 4 3 3 3 1 3 3 1 3 2 3 4 3 3 3 5 4 2 2 2 2 2 5 6 6 6 6 6 6 7 9 12 15 16 18 18 18 19 19 20 22 22 24 24 25 25 26 26 25 25 26 27 28 29 29 28 27 27 27 27 27 27 27 28 28 28 28 29 29 29 29 29 29 30 30 30 31 32 32 32 33 34 33 34 36 37 37 36 33 31 30
5 3 3 5 4 2 1 2 3 2 1 2 2 3 4 4 7 10 6 7 6 6 6 4 6 4 1 4 8 7 6 6 6 6 7 7 10 15 16 17 18 18 18 20 21 22 24 24 24 25 25 25 25 25 25 24 25 25 26 28 29 28 27 27 27 26 27 28 28 28 28 27 27 27 28 28 28 28 28 29 29 30 31 31 31 31 33 34 33 33 34 34 34 32 31 29 28
3 3 4 4 2 3 2 1 1 4 2 4 3 5 6 3 9 10 10 12 10 8 7 5 8 7 4 6 8 6 5 6 7 7 8 8 9 14 16 17 17 18 20 21 23 23 24 24 23 24 23 24 24 25 25 24 25 25 26 27 28 29 28 28 28 28 27 27 27 27 27 26 26 27 27 27 27 28 28 29 30 32 32 31 31 31 32 33 33 33 34 33 32 31 30 29 28
4 4 5 1 4 2 2 1 2 1 5 4 3 7 6 3 7 4 1 4 4 6 8 7 8 7 6 7 8 8 6 6 7 7 7 7 8 11 14 15 17 19 21 22 22 23 23 22 22 23 24 25 26 26 26 26 26 26 27 27 27 29 29 29 29 28 28 27 26 27 26 26 26 26 25 25 26 26 27 29 31 33 32 30 30 30 31 31 31 31 32 32 32 31 30 29 29
4 2 2 2 1 2 2 3 2 3 5 4 4 8 6 6 10 5 4 5 3 6 8 7 7 7 7 7 7 6 4 3 5 5 6 6 7 11 13 14 16 18 20 21 21 21 22 22 22 23 25 26 26 26 26 27 27 27 27 26 26 27 29 30 29 28 28 28 27 27 26 25 24 24 23 23 25 26 27 28 30 32 31 29 29 30 31 32 31 30 30 30 30 30 30 29 29
3 3 2 2 2 3 3 3 3 3 4 5 6 6 6 9 9 5 6 8 8 8 7 5 5 5 3 3 4 4 3 4 5 5 6 6 7 10 13 15 16 17 19 20 20 22 22 22 23 23 24 25 26 27 27 27 27 27 27 26 25 26 27 29 30 29 29 29 28 28 27 26 25 24 23 23 25 26 28 28 29 29 29 29 29 30 31 32 31 30 30 30 30 30 31 31 30
2 0 2 2 1 2 1 2 2 3 4 4 5 6 8 8 4 4 7 5 4 2 2 1 3 3 3 1 4 5 4 5 6 6 6 4 6 9 11 14 16 17 18 19 21 22 22 23 24 24 24 25 26 27 28 28 28 27 27 27 26 25 25 27 29 29 30 30 29 28 28 27 26 25 24 24 26 27 27 27 27 27 28 29 31 31 31 31 30 30 30 30 29 29 30 31 30
8 6 7 8 5 4 2 4 3 3 3 3 4 5 11 8 3 3 4 2 4 4 6 4 4 6 7 3 5 6 4 4 5 4 3 1 3 5 8 10 13 16 19 20 21 22 23 24 25 25 25 26 27 27 28 28 27 27 27 27 26 24 23 25 27 28 29 30 30 29 28 27 27 26 25 25 26 27 26 26 26 27 27 29 31 31 31 30 30 30 30 30 30 30 30 30 30
Wind_Direction
325 334 324 313 294 303 281 227 283 245 202 120 98 107 75 75 113 123 109 118 104 57 38 45 42 25 34 344 28 77 49 28 46 20 114 134 140 144 140 135 139 140 147 152 152 150 145 143 138 135 130 129 127 126 125 120 119 114 109 104 100 98 98 96 88 81 76 75 74 72 75 79 83 83 81 82 83 85 87 89 91 92 89 88 90 85 81 78 76 75 75 75 77 82 85 88 90
321 323 302 291 264 277 288 186 258 257 178 91 74 89 107 128 140 102 91 85 77 72 57 43 45 48 2 307 327 77 58 51 75 87 108 127 132 136 141 139 139 141 146 150 153 152 147 145 140 135 126 126 127 123 124 121 118 113 109 106 104 102 102 99 92 86 80 75 74 75 77 79 83 85 84 83 85 86 87 90 92 92 93 98 99 92 86 80 76 76 77 77 79 83 86 90 93
309 277 271 283 257 220 290 216 236 267 130 97 73 104 136 131 99 79 76 81 86 92 77 59 60 53 308 308 7 48 79 76 94 99 114 136 139 145 152 145 141 140 140 144 149 155 151 149 145 139 130 128 130 129 128 124 120 116 114 111 108 106 105 102 97 91 84 76 72 73 75 78 84 85 84 85 87 88 90 92 93 94 93 94 92 85 81 77 77 78 78 78 78 79 86 93 96
308 280 270 289 269 202 273 233 236 304 55 99 95 138 149 107 90 80 79 85 87 103 97 101 97 36 338 1 7 58 97 83 108 115 122 153 157 154 157 148 144 141 140 143 147 159 158 154 151 143 138 136 139 137 135 131 126 124 120 117 113 110 109 105 99 94 87 78 72 71 72 78 86 89 87 87 89 90 93 93 95 95 88 86 85 80 79 80 80 81 80 80 78 78 86 95 98
21 47 276 294 304 229 272 268 275 32 26 49 108 147 126 97 95 93 91 86 73 66 43 84 89 27 62 29 343 65 99 90 116 116 105 133 146 150 155 149 148 144 142 144 150 163 159 158 156 149 145 142 143 143 143 139 134 131 126 124 119 114 112 107 102 96 90 80 73 71 70 76 86 92 92 91 91 92 95 96 96 94 86 84 84 84 86 87 85 84 81 79 81 84 91 97 98
359 283 241 251 261 345 347 276 359 79 6 5 103 117 94 100 105 105 100 89 72 61 21 33 76 346 98 62 48 56 35 111 110 107 112 124 137 145 152 152 149 147 146 145 157 167 161 161 159 154 151 146 146 145 147 145 143 138 134 131 125 119 117 112 106 99 90 81 75 73 71 77 88 95 97 96 96 96 97 98 97 94 93 92 93 95 94 92 89 85 81 82 86 90 96 98 98
323 304 209 232 263 210 251 264 62 81 352 8 86 103 92 103 110 115 119 107 87 90 31 11 24 325 112 110 80 57 35 96 106 105 126 127 135 146 151 153 151 151 149 149 163 169 164 164 160 158 154 152 151 148 153 154 152 148 144 137 128 124 121 117 112 103 93 84 80 77 75 79 91 99 100 100 100 100 100 102 102 98 99 101 100 97 95 95 92 88 85 87 90 94 98 98 97
300 299 168 270 275 224 253 303 63 69 29 28 49 81 101 113 123 130 134 128 137 131 151 183 61 360 141 133 84 90 63 89 111 113 129 131 135 146 150 153 154 155 150 157 169 167 166 165 162 162 155 155 154 149 158 164 161 153 149 141 131 127 124 121 114 108 98 90 84 81 80 83 95 103 104 104 104 103 105 108 111 107 100 96 96 94 94 95 92 90 90 92 94 98 100 98 98
203 223 26 330 276 255 256 83 86 85 104 88 61 72 103 126 138 134 128 121 139 136 141 152 112 63 166 97 82 127 100 101 115 118 136 141 139 144 152 156 159 159 155 165 173 168 169 167 165 165 158 157 154 148 154 164 163 155 151 145 137 133 129 125 117 113 104 96 89 85 84 88 98 106 107 107 106 106 108 105 104 109 103 97 97 97 96 95 96 94 96 100 100 101 102 101 100
194 195 312 311 274 255 245 97 95 94 100 103 111 111 110 139 148 140 137 119 136 132 103 89 99 247 269 112 105 133 129 129 123 123 140 147 145 150 159 159 162 162 158 165 170 171 173 171 170 168 162 159 155 150 147 156 159 154 153 148 143 142 137 131 125 119 111 104 96 91 90 94 102 108 109 109 106 107 110 106 102 104 102 99 100 101 101 100 99 97 98 103 106 106 104 103 100
201 197 220 310 270 257 267 92 105 108 106 99 112 123 123 145 142 144 136 113 128 121 108 114 123 235 249 109 94 123 133 140 133 133 141 147 151 157 164 160 163 166 161 162 167 176 177 177 175 171 167 164 161 155 149 152 158 156 154 153 149 150 145 137 133 126 121 114 105 100 98 99 105 111 114 114 111 109 111 113 109 107 108 105 105 106 105 104 101 100 99 103 112 113 107 102 99
219 206 149 279 274 312 18 67 103 110 127 137 125 130 151 142 141 155 133 116 133 128 134 167 137 284 214 101 110 141 138 145 142 141 143 147 153 154 161 160 161 168 169 163 165 178 181 183 180 176 173 169 167 162 157 154 161 165 161 160 158 157 152 144 139 133 128 122 116 109 106 107 110 116 120 122 118 115 114 116 116 117 118 114 112 112 109 109 108 106 103 108 117 116 109 105 102
233 222 158 230 272 11 10 24 96 132 155 159 140 140 154 150 168 161 140 136 137 142 144 149 103 23 129 87 118 147 149 152 146 146 146 146 152 152 155 164 165 168 176 168 166 177 182 186 186 182 179 175 174 169 167 163 167 174 171 168 164 162 158 151 145 141 138 132 126 119 116 116 117 119 123 128 127 124 121 121 122 123 122 119 117 117 118 115 114 111 109 117 121 118 113 108 106
270 271 177 226 273 9 11 24 114 190 128 122 124 142 158 162 184 141 141 151 112 132 142 89 83 59 51 101 134 165 153 147 147 150 146 142 153 160 155 162 171 170 180 177 172 180 180 185 190 189 185 182 181 178 177 174 174 177 177 174 169 169 164 158 152 151 151 142 135 130 126 123 122 122 124 129 132 131 128 126 126 128 128 125 122 122 123 120 119 116 116 124 124 120 117 111 108
302 335 342 301 310 349 51 101 341 360 86 116 127 149 150 110 121 65 57 117 86 113 96 53 56 75 38 77 147 150 143 142 147 150 145 146 151 161 156 155 172 168 174 178 175 181 181 183 190 194 191 188 187 188 188 183 182 182 182 180 175 174 170 166 162 163 161 150 143 137 131 127 126 126 124 127 131 132 132 131 130 133 134 132 129 126 124 124 125 120 122 128 126 123 120 114 111
334 350 359 313 297 250 174 171 87 36 108 136 147 152 139 69 19 84 17 69 111 200 66 68 62 78 53 59 100 118 135 142 146 148 145 149 145 158 163 157 170 163 169 181 177 178 185 185 188 195 194 192 192 192 195 193 190 189 188 187 183 179 176 173 172 172 168 159 150 142 137 134 131 129 128 128 131 134 135 133 130 131 133 132 132 131 129 130 127 122 126 130 126 125 122 120 116
312 14 39 251 249 212 178 164 138 147 124 135 158 162 147 137 10 106 219 25 115 132 117 102 80 76 87 106 117 118 134 141 145 147 142 147 146 158 173 174 176 175 178 184 181 177 186 188 185 192 192 191 195 196 198 198 195 195 194 194 190 184 183 180 180 179 171 166 157 151 148 143 141 138 135 134 134 137 137 134 130 131 131 131 131 130 130 128 124 123 128 128 126 126 124 125 121
252 135 211 234 232 241 171 107 83 134 135 148 167 181 170 147 164 137 135 193 134 151 150 120 84 82 101 121 131 130 138 143 149 151 146 154 158 164 180 188 185 189 191 189 188 184 187 192 188 188 189 190 195 198 202 202 199 198 198 197 194 190 189 186 184 183 176 171 164 162 158 151 151 146 141 139 138 138 139 138 134 133 132 131 130 128 126 124 123 126 128 127 127 127 126 128 124
236 160 213 239 227 360 19 59 53 49 122 151 166 202 205 145 154 147 163 188 179 184 180 156 132 108 116 131 140 144 149 153 160 160 158 164 168 171 181 190 190 193 197 197 195 193 196 197 192 187 189 194 192 197 205 207 204 201 200 198 196 193 192 190 187 186 182 176 171 169 158 155 161 156 150 145 143 144 143 143 139 137 135 133 132 129 129 128 128 129 128 126 124 123 120 120 123
238 133 207 259 33 49 31 53 67 30 36 140 147 203 244 130 137 151 202 200 181 193 197 174 175 169 155 152 149 152 158 164 171 172 170 173 175 178 182 188 192 195 197 201 201 202 206 201 195 189 194 203 196 195 200 204 205 199 197 199 199 196 194 193 191 191 188 182 175 166 155 163 175 168 160 153 150 151 148 147 144 142 140 138 137 134 132 131 130 129 125 121 120 120 116 112 118
113 97 180 333 356 45 43 46 59 28 357 84 120 120 255 115 112 162 199 217 200 207 206 188 193 184 164 159 158 158 162 168 178 182 180 182 183 185 188 191 193 196 197 200 200 206 210 205 201 193 195 208 204 199 196 196 201 196 196 201 203 199 195 195 194 193 192 188 177 166 165 174 183 176 166 162 158 157 152 151 150 147 144 141 139 135 133 133 131 126 122 123 124 125 121 116 118
157 156 98 37 3 46 53 52 42 358 327 80 114 129 166 98 101 192 207 228 208 186 117 108 169 164 155 156 158 161 167 171 181 188 189 190 190 189 191 193 194 196 196 197 197 202 207 204 202 198 196 205 206 204 200 196 199 198 200 204 207 202 197 197 195 193 194 192 181 175 178 181 184 181 171 169 166 162 157 155 154 150 147 144 141 137 135 133 129 127 130 136 139 138 133 129 127
232 155 88 43 25 70 50 58 31 328 340 91 119 141 54 105 205 207 210 228 183 114 92 68 60 120 142 150 155 165 174 176 185 192 195 194 194 194 191 192 193 192 194 198 198 199 204 201 201 201 198 199 201 204 206 206 205 200 201 206 211 208 203 200 196 195 195 194 187 184 186 183 185 183 173 174 172 165 160 157 157 154 150 146 143 139 134 132 134 143 151 151 151 150 145 139 135
234 181 97 53 40 81 62 71 111 332 20 48 19 329 281 206 232 170 214 231 203 122 108 99 90 114 135 146 160 175 180 184 192 196 198 198 198 199 194 191 193 193 194 197 199 199 201 199 197 198 197 197 197 199 206 213 212 205 202 206 209 208 208 206 200 198 197 197 193 191 190 184 186 183 174 176 179 171 164 160 162 158 152 149 144 139 138 149 160 163 161 158 155 153 148 143 138
234 171 113 114 72 91 95 105 124 33 43 43 22 273 248 201 63 346 243 235 225 154 122 119 115 124 144 156 168 179 183 189 194 197 201 205 204 203 202 198 194 193 194 196 196 197 199 199 196 196 196 198 198 197 202 210 217 215 209 209 207 205 208 208 204 200 198 200 197 194 193 186 184 183 176 179 182 174 166 169 174 164 156 155 150 148 160 171 170 164 159 154 152 151 148 146 142
241 122 117 129 110 103 121 127 122 177 181 82 267 244 232 71 46 266 242 231 219 169 137 138 133 146 168 168 175 179 184 190 192 196 200 204 205 205 205 204 200 196 195 196 194 193 197 198 196 197 197 197 199 199 200 206 216 219 213 211 211 207 208 209 207 202 200 202 200 198 196 189 187 185 182 184 184 175 170 179 186 173 164 171 166 164 179 180 167 160 156 152 151 152 151 150 147
331 105 104 109 122 123 199 146 123 140 80 113 267 272 209 84 22 251 249 230 188 156 150 159 152 169 186 183 185 184 187 194 193 194 195 198 204 207 205 205 206 203 198 198 198 197 198 197 197 199 198 195 198 202 203 205 211 215 212 213 215 212 209 212 212 208 207 207 204 203 199 194 192 189 188 190 187 180 176 183 189 181 176 184 180 175 186 180 166 163 159 157 157 155 152 153 154
106 117 101 110 144 133 180 165 142 164 67 248 288 305 263 115 216 236 207 148 154 158 176 183 176 187 198 198 194 189 194 197 193 190 190 195 201 205 204 203 206 206 203 202 202 200 200 200 199 200 199 196 199 202 201 202 207 211 211 211 215 215 211 212 216 215 213 210 205 206 205 201 196 192 193 193 192 187 184 187 187 184 185 189 186 182 186 176 168 167 165 165 164 158 155 155 157
125 161 132 145 169 155 187 166 143 180 133 263 326 313 260 179 226 239 185 152 156 168 193 195 193 195 204 208 196 191 197 197 192 191 196 200 202 203 205 206 205 206 207 206 202 201 202 202 201 201 200 200 202 202 202 204 206 209 213 213 216 218 216 214 218 219 216 212 207 207 209 206 199 197 199 196 197 194 190 192 191 189 189 191 189 186 182 174 171 170 167 169 166 159 155 154 156
157 221 229 149 178 198 192 154 139 171 125 236 124 319 264 211 226 232 153 149 152 170 205 203 205 202 202 203 194 191 192 195 197 199 202 203 204 204 206 208 207 206 207 205 203 202 202 202 202 202 200 202 204 204 204 207 206 205 209 216 220 223 224 219 215 218 217 214 211 208 209 209 203 201 204 202 201 198 195 196 197 195 193 194 192 188 182 177 176 172 170 169 164 159 153 153 156
170 174 298 206 201 182 166 134 155 180 210 235 166 229 271 279 238 185 127 152 157 188 218 213 219 213 200 191 187 193 193 201 208 208 205 204 205 206 207 208 208 208 206 205 204 203 202 202 201 202 201 202 206 207 207 208 209 208 206 212 221 224 226 222 213 212 214 214 213 211 211 210 207 205 206 206 204 201 198 198 199 198 196 197 195 189 184 181 178 175 173 168 160 156 151 152 154
178 133 260 238 222 167 141 120 158 167 286 216 178 230 264 277 224 132 119 135 158 216 236 229 229 221 208 191 182 191 202 207 211 212 209 208 206 206 208 208 208 209 209 209 207 205 203 204 204 204 203 202 207 210 210 211 213 216 214 213 222 228 227 225 219 214 213 214 216 216 215 212 208 206 205 206 207 204 202 201 201 201 198 198 196 190 186 183 180 176 175 171 162 155 151 150 152
209 184 236 212 194 184 174 322 109 128 120 201 210 253 277 267 179 168 168 159 168 214 247 246 238 228 217 202 190 195 204 208 209 209 209 210 210 209 210 210 210 211 212 211 209 206 204 206 208 207 207 206 208 211 212 213 213 215 215 212 218 229 229 227 224 220 216 215 216 214 213 212 209 209 209 210 209 206 206 205 204 205 202 199 197 191 189 188 184 176 171 172 167 159 154 151 150
205 196 248 227 176 185 179 334 328 162 188 234 222 233 264 271 244 216 209 186 177 194 224 237 235 229 221 209 204 202 203 211 210 202 203 207 210 211 212 212 211 211 212 212 210 209 206 207 210 210 211 211 211 214 215 216 214 211 210 208 213 226 231 227 224 222 219 217 217 215 211 211 213 216 216 215 212 206 206 207 207 208 205 200 197 193 191 189 186 180 172 170 170 164 160 156 153
180 181 221 213 197 242 238 121 171 181 208 257 235 231 251 264 265 254 234 207 194 203 214 224 231 234 237 227 218 212 206 214 214 202 201 204 208 209 211 212 210 209 210 210 210 210 207 208 212 212 213 213 213 215 217 216 215 213 210 207 211 223 229 226 223 223 223 219 219 220 217 218 222 223 221 219 216 210 208 210 210 210 206 202 198 193 190 188 184 180 174 171 169 167 164 160 156
45 129 192 215 217 250 157 107 84 223 194 240 241 244 249 257 263 260 248 225 210 215 217 223 231 234 241 239 231 226 218 220 214 204 201 202 206 208 208 208 207 207 208 207 206 208 207 207 210 212 213 213 212 211 214 214 213 214 214 212 214 218 221 222 223 225 225 222 221 224 222 223 227 225 223 222 220 216 213 215 217 213 208 203 198 194 192 191 187 181 177 174 169 162 162 160 157
21 25 13 337 2 9 89 99 6 351 321 246 243 252 256 258 263 262 258 254 244 235 232 232 230 226 228 232 237 235 230 231 217 205 202 200 203 205 203 203 202 201 204 204 203 206 207 205 207 211 210 210 209 208 209 211 211 211 211 213 215 216 215 217 221 224 227 226 226 229 228 226 225 223 222 220 217 215 213 215 217 214 209 205 202 200 198 195 190 184 179 176 172 164 161 161 160
39 19 1 348 296 171 72 84 194 44 29 267 273 278 269 264 270 272 266 262 255 240 238 240 233 228 224 227 239 239 237 240 218 203 196 192 194 197 196 197 196 198 201 202 203 205 206 205 206 210 209 207 208 209 210 211 212 211 210 211 214 217 217 217 220 223 226 225 223 224 224 223 221 220 220 218 213 211 213 215 216 214 210 206 203 200 198 194 190 187 181 174 172 170 167 165 164
76 99 18 334 260 156 72 58 184 98 131 270 303 304 281 271 266 266 261 255 250 233 229 234 228 227 224 226 239 238 232 231 212 196 185 182 185 187 189 192 195 200 202 202 204 205 205 204 206 210 209 207 208 210 212 213 213 213 213 214 216 219 222 224 224 223 223 221 219 217 216 216 217 218 217 216 212 212 217 221 219 214 208 205 201 196 193 192 190 190 187 180 174 170 169 170 171
158 171 138 236 240 104 61 340 276 220 210 270 319 310 282 275 258 252 246 241 249 245 234 235 222 216 220 227 236 228 217 219 208 198 185 179 180 181 185 191 195 199 201 203 205 205 206 206 206 208 209 209 208 209 213 215 214 214 214 216 219 221 224 224 223 223 222 221 219 218 218 216 216 216 215 214 215 217 221 223 221 214 207 205 203 197 194 193 192 190 189 185 179 171 170 175 177
216 198 191 222 228 106 108 38 302 246 222 293 328 313 280 273 253 258 255 234 246 251 240 241 229 217 224 238 243 231 216 213 205 202 191 178 180 184 189 193 195 199 202 205 206 206 207 207 208 209 210 209 208 208 211 213 212 210 208 206 208 210 213 213 214 216 217 219 219 219 219 218 215 214 214 216 220 222 222 222 221 216 210 205 202 200 198 198 196 193 188 186 183 179 177 178 179
237 210 207 238 271 83 91 35 359 335 319 282 360 339 290 305 303 288 309 301 261 256 238 238 234 221 227 242 246 242 238 226 215 212 191 174 180 185 189 194 198 203 207 209 209 207 207 209 209 209 209 210 208 207 208 210 209 207 203 199 197 198 201 206 210 211 211 213 218 219 220 220 219 218 218 219 221 222 221 221 219 216 212 207 202 201 201 200 198 197 194 192 191 191 186 180 180
267 261 321 331 49 78 84 17 18 4 290 246 125 62 278 303 297 280 288 287 271 264 255 249 237 216 219 230 231 229 234 230 226 225 197 168 174 180 188 196 201 207 210 210 209 208 208 209 209 209 209 209 208 207 208 209 208 208 206 205 203 202 203 210 215 214 214 215 217 220 221 220 221 224 225 223 221 220 220 219 218 215 212 208 204 202 201 202 202 202 202 199 198 197 191 184 181
258 270 320 17 82 91 107 64 231 236 317 288 172 163 256 283 282 274 268 268 266 257 256 257 243 223 218 219 212 203 202 194 191 206 202 175 173 180 188 198 204 208 210 208 208 208 207 208 208 207 207 208 209 210 210 211 211 210 210 209 209 210 212 217 220 217 217 218 218 221 223 221 223 225 224 222 219 217 216 216 215 212 210 209 206 204 204 206 205 203 202 201 199 197 195 192 186
248 257 314 76 94 95 112 97 269 304 11 306 204 151 258 258 266 278 264 259 266 254 247 251 246 229 207 181 164 154 145 136 138 162 183 181 176 180 188 196 203 206 207 207 207 207 205 205 206 206 206 209 211 211 211 212 213 213 212 210 211 215 218 221 224 220 218 218 218 219 222 223 223 222 219 218 216 215 214 214 214 211 209 209 209 208 208 208 207 206 203 201 199 198 199 197 191
213 209 96 82 91 75 73 100 45 17 337 257 196 167 255 262 235 246 250 252 255 248 249 258 256 187 141 129 132 126 112 109 118 131 135 140 158 167 175 184 191 197 202 204 204 204 203 203 205 205 206 210 212 212 211 211 212 212 213 212 213 215 216 217 222 221 218 218 218 219 221 221 220 219 218 217 216 215 214 214 214 213 212 212 213 211 208 207 207 207 206 202 200 200 200 198 197
157 164 103 83 80 57 42 89 78 40 279 263 193 182 206 278 251 211 221 229 215 234 251 206 84 82 90 106 140 155 146 145 147 135 123 121 141 158 163 171 179 187 193 197 198 200 200 201 204 205 206 210 212 212 211 212 213 213 215 216 216 215 213 212 215 216 214 215 216 218 220 219 218 218 220 221 220 218 215 214 215 216 216 216 214 212 210 209 208 207 205 203 201 201 201 201 203
109 144 116 91 25 31 23 9 64 188 252 291 270 193 193 248 265 309 324 9 102 189 206 125 116 111 124 163 185 177 165 163 167 159 141 136 149 168 174 173 176 181 186 191 194 197 198 200 202 203 204 208 212 213 213 214 215 216 217 218 218 216 212 211 212 212 212 212 213 215 216 216 217 218 221 224 223 219 216 216 217 217 217 217 215 214 215 216 215 211 207 203 202 202 202 202 204
74 150 120 109 338 15 347 256 162 226 240 271 329 358 244 243 254 301 312 318 307 248 105 101 113 143 167 188 201 186 169 166 173 172 166 167 172 181 185 181 179 184 188 190 193 195 196 199 200 203 205 207 211 214 214 216 218 218 218 217 217 216 214 213 214 214 215 215 214 215 216 217 219 220 221 223 225 223 220 219 220 220 220 220 218 217 218 220 219 217 212 207 205 205 205 204 204
188 169 140 145 167 187 236 231 209 235 248 294 326 355 267 268 275 259 260 271 288 333 29 109 90 216 193 180 196 195 183 177 183 183 177 181 185 185 188 187 186 190 192 192 194 195 196 198 200 203 206 208 210 214 215 217 220 222 221 219 218 217 215 215 216 217 218 218 218 220 224 226 227 228 228 227 227 226 224 223 224 224 222 220 219 218 218 219 219 217 214 211 209 208 208 207 206
199 188 161 174 173 186 212 191 206 230 246 313 319 282 207 218 273 255 237 263 307 334 314 314 347 324 347 319 259 236 215 197 189 190 194 197 188 185 188 191 193 195 194 193 195 197 198 200 202 204 206 208 210 214 215 217 221 223 224 222 220 220 218 217 218 220 221 222 223 224 227 230 231 232 233 231 228 227 226 226 226 225 221 219 219 219 218 217 217 216 213 212 212 211 209 207 207
221 203 187 218 199 172 183 165 176 153 15 294 234 245 222 201 271 272 266 275 277 287 299 327 322 301 276 271 264 251 234 214 194 197 216 219 197 190 193 195 197 196 195 197 198 199 201 202 204 206 208 209 211 214 215 218 222 224 225 225 223 222 220 219 219 220 222 223 224 226 227 229 231 232 231 228 225 226 228 228 227 225 221 220 220 219 216 215 216 215 213 212 212 211 210 208 206
205 175 202 216 125 112 165 264 58 102 268 263 186 258 283 306 287 261 235 254 255 249 261 269 276 269 235 252 270 274 248 204 192 204 222 228 206 197 198 196 196 196 197 201 203 204 205 204 204 206 207 209 212 215 217 218 222 223 224 225 224 223 221 221 220 220 221 223 225 228 230 231 231 229 227 226 226 229 232 232 228 224 220 220 220 218 216 215 216 215 213 212 212 211 211 209 205
136 175 206 140 43 33 141 214 354 126 247 261 188 251 282 309 281 263 188 277 259 228 238 235 243 243 237 257 273 279 261 204 200 211 216 221 203 195 198 197 200 202 203 205 206 207 208 207 206 206 207 209 211 216 218 219 221 222 222 222 223 223 221 221 222 222 222 222 224 226 229 230 229 226 227 230 232 234 236 235 229 223 220 219 219 219 219 217 216 214 213 213 212 210 209 206 203
114 179 223 103 113 245 141 172 231 212 239 268 250 255 264 239 250 284 346 318 284 251 248 232 216 211 225 249 257 268 274 226 226 219 209 213 199 193 196 199 204 206 207 207 206 206 207 208 209 210 212 212 212 216 219 220 221 222 222 221 222 224 223 222 222 223 223 223 224 224 225 226 226 228 231 235 238 239 240 237 231 225 221 219 219 221 221 220 217 214 211 211 210 208 206 203 202
28 4 347 78 152 185 167 183 195 184 217 251 267 269 259 237 242 274 280 265 258 257 256 234 194 185 211 221 213 228 241 244 254 246 228 218 202 199 200 203 207 205 205 204 203 204 206 208 209 212 215 215 214 215 217 219 220 221 222 221 222 224 224 224 223 222 222 223 224 224 225 226 228 232 236 238 241 242 240 236 231 226 222 221 222 223 222 220 217 215 213 211 210 208 207 205 203
169 274 216 191 148 121 145 242 194 173 196 231 254 265 261 245 220 230 236 244 260 228 108 118 118 65 355 31 169 197 226 250 261 269 257 217 192 201 205 208 207 203 203 203 202 204 206 208 210 212 213 214 214 214 216 219 219 219 221 220 219 221 223 224 224 224 223 223 225 226 228 231 234 236 237 238 239 239 238 234 229 227 226 225 225 223 221 219 215 214 213 212 210 208 206 205 202
187 194 196 197 189 149 185 248 222 176 186 207 219 260 270 256 175 205 244 24 29 75 72 13 344 349 323 293 167 166 184 237 254 288 319 56 158 195 205 208 205 201 201 201 203 205 206 209 211 212 213 214 216 215 217 220 220 220 221 220 218 217 220 222 223 224 224 224 226 229 232 234 234 234 235 237 237 236 234 232 230 230 228 225 223 221 220 218 214 212 210 209 208 206 204 203 200